Theta_e
310 309 309 309 309 309 310 309 309 309 309 311 312 313 316 316 318 322 322 320 317 316 322 323 319 319 319 316 316 316 317 317 317 316 317 318 318 320 322 322 322 324 323 323 323 323 323 324 324 323 323 324 324 321 321 321 322 325 326 324 325 333 338 332 333 342 339 330 329 330 330 336 338 334 334 336 336 343 348 346 344 340 337 340 338 335 349
310 310 309 309 309 310 310 309 309 308 309 312 314 315 316 317 319 323 325 324 320 318 321 324 325 327 323 319 320 321 320 317 317 317 318 319 319 320 322 322 322 324 323 323 324 322 321 323 324 324 324 323 322 321 322 323 324 323 326 327 324 325 332 332 332 336 333 327 328 330 332 338 340 339 338 337 341 344 339 342 347 341 336 339 336 337 351
310 310 310 309 310 310 310 310 309 308 309 313 316 316 316 319 323 324 324 325 322 321 322 321 323 327 324 324 327 325 322 321 320 319 318 319 319 319 322 322 320 323 323 322 324 323 321 322 323 324 323 322 322 321 320 324 325 323 322 325 326 328 338 344 335 324 325 329 331 332 332 330 332 337 338 335 340 341 335 337 340 336 334 337 338 342 350
310 310 310 309 310 310 310 310 310 309 309 312 316 316 316 322 328 327 326 325 322 322 324 323 324 327 327 329 330 326 325 325 323 321 320 320 320 320 322 322 320 322 323 323 324 323 321 322 325 327 324 323 323 320 322 324 322 324 323 321 330 333 335 348 347 330 329 340 344 342 336 326 322 328 333 334 337 340 341 339 337 338 337 338 345 347 341
310 310 309 310 310 310 310 310 310 309 308 312 316 316 316 322 327 326 326 327 326 325 324 322 324 327 327 329 329 326 326 325 322 323 322 321 323 321 321 322 321 322 323 324 325 324 323 322 325 328 326 324 323 320 324 325 322 327 325 319 332 335 323 331 343 334 331 344 347 340 331 324 322 324 326 333 337 338 339 337 338 342 336 336 353 352 336
309 310 309 310 310 310 310 310 311 310 308 311 315 317 318 322 324 323 323 327 328 328 326 323 323 324 324 328 329 326 327 325 323 325 324 322 323 322 323 325 324 324 323 322 325 327 327 325 324 326 326 323 325 324 323 325 328 329 324 321 332 336 323 321 328 327 329 334 332 330 327 325 326 324 324 332 338 336 335 339 343 345 337 338 355 352 338
310 309 310 310 310 311 311 311 311 311 308 308 314 319 320 321 323 322 322 324 324 324 323 322 323 324 325 331 332 327 327 326 324 324 325 325 325 323 325 328 326 326 326 326 329 327 323 324 326 327 326 324 327 328 323 326 327 325 322 322 325 329 331 329 323 321 326 329 325 324 324 324 325 326 326 330 337 337 334 339 343 341 338 346 355 351 344
310 310 310 311 311 311 311 311 311 311 308 308 313 318 319 320 322 322 321 322 321 321 321 321 324 326 326 328 329 326 327 327 324 324 324 325 325 324 326 329 327 327 329 330 330 326 323 324 326 327 327 327 330 330 326 326 324 321 322 325 322 323 333 340 333 322 324 330 327 324 325 325 326 331 333 330 334 335 331 336 340 335 337 348 351 349 349
309 310 310 311 311 311 311 311 311 311 309 308 309 313 316 317 319 319 320 323 323 322 322 321 323 328 328 328 328 326 326 326 323 324 324 323 324 323 324 327 329 330 331 331 328 325 325 326 325 325 326 325 327 328 325 324 324 324 324 324 326 327 330 338 338 325 322 327 326 326 334 332 330 336 336 330 332 332 329 335 340 337 341 349 346 344 352
310 310 311 311 311 311 310 311 311 310 310 308 307 310 312 313 315 318 320 323 323 322 324 323 324 328 328 326 326 324 324 324 323 326 327 323 323 324 323 325 331 332 330 329 327 324 324 326 324 324 323 322 323 323 322 322 323 326 327 325 331 336 329 329 333 326 322 327 329 333 338 331 328 335 334 330 334 335 332 338 343 343 346 350 348 347 351
310 310 311 311 311 310 310 310 310 310 310 308 306 309 311 311 314 318 319 322 322 320 324 328 328 328 326 324 323 323 322 323 322 325 328 325 323 326 324 324 331 335 329 325 326 324 324 326 324 323 323 322 322 321 322 323 320 323 328 328 331 337 331 328 334 326 320 330 337 332 327 324 327 335 336 334 338 342 342 343 345 346 346 347 350 353 354
310 310 311 311 310 310 310 310 309 309 309 308 306 308 310 311 314 318 320 324 325 322 325 329 326 324 324 322 322 321 321 322 322 323 325 324 323 325 325 324 329 333 328 323 325 325 325 325 326 327 325 323 322 321 321 324 322 321 324 326 331 336 331 332 339 332 325 335 339 324 321 331 336 334 336 337 340 347 350 346 345 347 346 348 355 359 354
310 310 311 310 310 310 309 309 309 308 308 307 306 307 308 310 314 319 320 322 325 325 327 326 320 319 321 321 321 321 322 323 323 322 323 324 324 324 325 325 325 325 325 324 325 325 326 330 335 335 333 334 331 325 323 326 324 322 322 323 327 332 332 331 334 330 325 329 330 324 328 338 335 331 334 337 339 342 343 343 347 348 346 352 362 359 347
310 310 310 310 309 309 309 308 308 308 307 307 306 306 308 310 314 319 320 320 322 322 321 321 320 320 320 320 320 322 323 323 324 324 324 323 324 325 324 324 324 324 325 325 324 325 329 339 344 341 340 341 333 325 327 328 323 323 325 322 322 327 332 328 323 324 327 326 325 330 332 328 328 335 338 337 338 340 341 347 351 347 340 345 357 356 344
310 309 309 309 308 309 309 308 308 308 307 307 306 306 308 311 314 317 318 318 320 320 317 318 321 321 319 319 321 323 326 326 325 326 325 322 323 325 324 324 324 325 324 324 328 335 338 338 337 333 331 330 323 323 330 328 321 323 324 321 322 326 329 328 322 324 332 331 326 326 324 323 333 344 338 329 330 334 341 348 349 344 339 340 349 354 345
309 309 308 308 308 308 308 307 307 307 307 307 306 306 309 312 315 317 317 317 319 320 318 317 318 318 318 319 321 323 325 327 326 328 330 327 324 323 323 324 325 325 324 324 330 341 343 335 332 332 331 327 323 323 328 327 324 326 325 323 326 329 333 337 330 324 329 335 331 327 326 329 342 349 337 327 328 330 333 337 340 341 340 340 344 346 342
308 308 308 308 307 308 308 307 306 307 307 307 306 306 309 314 316 317 317 317 318 319 317 316 316 317 319 322 323 323 323 324 324 327 330 329 324 322 323 324 325 324 325 329 333 338 338 333 331 332 333 332 327 323 325 327 325 325 326 326 328 332 336 336 330 327 332 336 332 330 330 331 339 347 338 328 328 329 327 330 336 338 338 340 343 340 338
308 308 308 308 307 308 308 306 306 307 308 307 306 307 310 314 316 317 317 317 318 317 316 315 317 318 319 322 322 321 321 323 323 324 327 326 323 322 322 323 326 326 325 332 337 336 333 333 332 330 333 335 330 324 325 327 323 323 329 329 327 332 336 334 332 334 337 335 326 325 331 334 335 339 335 327 326 326 327 333 338 336 337 341 341 337 335
308 308 308 308 308 308 307 306 306 308 309 308 306 307 309 313 315 316 316 317 318 317 316 316 317 318 318 318 317 316 318 320 321 324 328 328 324 321 322 323 326 327 327 333 338 333 328 332 335 333 332 332 329 325 325 326 325 326 327 326 325 328 329 329 330 330 333 339 334 326 330 335 331 330 330 327 326 330 335 337 335 333 337 341 339 336 336
309 308 308 308 308 308 307 306 306 307 309 308 307 306 308 312 314 316 316 316 316 316 315 313 313 314 314 314 313 315 317 319 320 322 325 326 322 322 327 329 327 326 329 335 338 332 328 333 335 330 328 328 328 326 328 332 334 329 325 327 330 330 327 329 331 330 330 336 334 325 328 333 328 327 331 331 330 334 336 333 330 332 337 337 336 336 336
308 309 308 307 308 307 307 306 306 307 308 308 307 306 308 312 314 315 315 315 315 315 314 311 313 313 314 314 314 315 317 318 319 319 320 320 320 321 326 328 324 325 329 332 334 331 331 335 336 330 330 334 333 328 328 332 336 332 327 329 331 331 329 329 334 336 333 332 333 332 333 332 327 329 335 335 332 332 330 329 331 332 333 334 335 335 335
307 308 308 307 307 306 306 306 306 308 309 308 307 307 309 312 314 316 315 315 315 314 313 311 312 312 312 312 312 314 315 315 316 317 317 318 319 320 322 322 321 323 326 328 332 332 331 334 336 332 333 337 337 334 330 329 333 334 328 325 326 329 329 329 333 339 337 336 341 339 331 327 327 330 333 331 329 330 330 330 332 331 331 334 334 333 335
306 307 308 308 307 306 306 306 307 308 309 308 307 307 309 312 314 315 315 315 315 314 313 312 311 311 311 312 312 312 314 316 318 319 319 319 319 319 320 321 321 322 322 323 328 329 329 332 333 331 333 335 336 337 334 330 332 334 329 326 327 328 328 329 331 333 330 330 334 332 326 327 330 329 329 329 330 331 330 330 330 331 332 333 332 333 334
306 307 308 308 308 307 307 307 308 309 308 307 308 308 309 312 314 315 315 315 315 315 314 313 313 313 313 315 316 316 316 318 320 320 320 320 319 319 321 320 320 321 321 320 322 322 324 329 329 328 332 334 332 335 335 331 330 330 330 333 334 329 328 331 333 332 329 329 333 333 330 331 331 330 330 331 330 330 330 329 330 331 331 332 332 332 333
306 307 308 308 308 308 308 308 309 309 308 307 308 309 310 311 313 314 315 315 314 314 314 313 313 311 312 314 317 319 319 319 320 320 320 319 319 320 321 320 320 321 320 319 320 319 321 327 331 331 333 331 328 331 333 332 330 328 329 336 335 328 326 330 337 339 335 331 333 333 332 332 332 331 331 331 330 330 330 329 330 331 331 332 333 333 334
307 307 308 308 308 308 308 308 308 308 308 307 307 308 309 310 311 312 313 314 313 314 314 313 313 312 313 315 317 318 318 317 318 318 318 318 319 319 320 320 320 321 319 319 320 318 319 324 330 332 333 331 328 329 330 331 329 327 329 334 331 324 322 326 334 340 338 333 332 334 334 335 334 331 330 330 330 330 331 330 331 331 332 333 334 334 335
308 308 308 307 308 308 307 307 307 307 308 308 308 308 309 309 310 310 312 313 313 315 315 315 314 312 312 314 315 316 316 316 317 317 318 319 320 319 319 320 320 320 319 320 320 319 320 323 326 329 331 329 327 326 328 329 327 326 331 334 328 324 327 330 334 341 343 340 337 335 336 339 336 333 333 333 332 332 332 331 331 331 332 333 334 334 335
309 308 308 308 308 308 307 307 308 308 307 308 308 309 309 309 309 310 311 311 313 314 314 314 313 313 313 314 314 315 315 315 316 317 318 319 320 320 320 320 320 320 319 319 319 319 322 324 325 326 326 325 325 327 327 326 325 328 333 334 327 324 328 332 337 341 342 338 334 331 333 336 335 333 334 333 332 332 332 330 330 331 332 334 335 335 336
309 308 308 308 308 308 308 308 307 308 307 307 307 309 311 310 309 310 311 311 312 313 313 313 313 314 315 315 314 314 315 316 316 317 318 319 320 320 320 319 320 320 320 319 319 319 321 322 322 322 323 323 326 329 328 327 330 333 331 328 325 324 325 328 331 333 332 331 331 331 330 332 332 333 333 332 330 331 331 330 330 331 333 335 337 337 337
308 309 308 308 308 308 307 307 307 307 307 306 307 309 313 312 309 309 311 312 313 313 313 313 314 315 314 314 314 314 315 317 317 317 318 319 319 320 320 320 320 320 319 319 319 319 320 320 319 320 321 322 324 329 330 329 334 337 331 323 323 325 324 325 326 326 327 329 331 330 330 330 332 332 332 331 331 331 331 330 330 331 333 334 335 336 337
308 309 308 308 308 308 307 307 307 306 307 307 307 309 313 313 311 310 311 313 313 312 313 314 315 314 315 315 314 315 316 317 317 317 318 318 319 320 320 319 319 319 319 319 320 319 320 321 320 321 322 321 323 330 332 330 332 334 329 324 324 325 325 326 326 325 327 328 329 330 331 331 332 333 332 332 332 331 331 330 330 330 331 330 330 333 337
307 308 308 308 308 307 307 307 306 306 307 307 307 309 312 314 312 311 312 313 313 312 313 315 315 315 316 316 315 316 319 319 318 318 318 318 318 319 319 319 320 320 319 319 320 320 320 320 320 321 322 322 327 333 333 330 330 331 327 324 325 325 326 328 328 327 327 327 328 332 334 333 332 332 332 332 332 330 328 326 325 325 327 328 329 332 336
306 307 308 308 307 307 306 306 306 306 307 307 307 308 311 313 313 312 313 313 313 313 314 315 316 317 317 316 315 318 320 320 319 319 319 319 319 319 318 318 319 320 320 321 320 320 320 320 320 320 321 323 328 333 333 329 327 327 325 325 326 326 328 330 329 328 329 328 328 331 333 331 330 331 331 329 328 324 321 321 321 323 325 328 329 332 335
305 306 308 308 307 307 307 307 306 306 306 307 307 308 310 313 314 313 313 313 314 315 316 316 317 318 317 317 319 320 319 319 320 320 320 320 320 319 319 319 318 319 321 320 319 321 321 320 320 323 326 327 327 329 329 328 326 325 325 325 326 327 330 331 330 329 330 330 329 329 329 329 330 331 331 327 323 319 319 320 322 323 326 328 331 333 334
305 306 307 307 307 307 306 306 306 306 306 307 309 310 312 314 315 314 314 314 315 316 316 316 316 317 318 321 324 323 318 318 320 320 320 321 322 321 321 320 319 320 322 320 320 322 323 321 321 326 328 327 329 329 328 327 325 325 326 326 325 326 330 331 330 330 331 332 331 329 328 329 330 330 328 324 319 318 319 322 324 326 327 329 331 333 334
305 305 306 307 307 306 306 306 306 306 308 311 313 313 314 314 314 315 315 315 315 316 316 317 317 317 318 321 323 321 317 317 318 319 320 322 323 322 322 323 323 322 322 322 322 325 325 324 324 328 328 328 329 330 327 326 326 325 325 326 325 325 328 330 330 331 332 332 331 330 329 329 330 328 325 321 318 319 321 323 324 326 327 329 331 333 333
305 305 306 306 306 306 308 308 307 309 312 314 314 314 314 314 314 315 315 315 315 315 315 316 316 316 317 318 319 318 317 317 316 317 319 323 323 322 323 328 328 324 323 326 327 326 326 325 326 329 331 329 328 327 325 324 325 325 324 324 325 324 325 327 329 331 332 332 331 330 330 330 329 327 323 320 319 321 322 322 322 323 325 327 330 332 332
305 305 305 305 306 308 311 312 311 311 313 314 314 314 315 314 314 314 314 314 315 315 314 315 315 314 315 316 317 316 316 315 315 315 317 321 324 324 324 327 326 323 326 330 327 323 325 327 328 330 331 328 325 325 325 324 324 324 324 324 325 325 325 326 328 330 332 331 331 331 331 330 328 326 322 320 320 321 322 323 324 325 326 327 329 330 332
305 305 306 306 307 310 312 312 312 313 314 314 314 315 315 315 315 315 315 315 315 315 315 315 314 314 314 315 316 315 313 314 316 317 318 321 324 325 325 325 324 323 327 330 326 323 328 332 331 331 332 330 326 324 324 324 324 324 324 324 324 325 325 325 327 329 330 330 331 330 330 329 328 326 323 321 320 321 323 324 325 327 327 328 328 330 331
306 306 307 307 309 311 311 312 313 313 313 313 314 315 315 316 316 316 316 316 316 316 316 316 315 315 315 315 315 315 314 315 317 319 321 323 323 323 325 325 323 324 328 330 326 324 328 331 330 331 333 332 328 324 323 324 324 324 324 324 324 324 324 324 326 328 329 329 328 328 328 328 328 327 325 323 321 321 322 323 325 327 327 327 328 329 330
308 308 308 309 310 311 311 312 313 313 313 314 315 315 315 316 316 316 317 317 317 316 317 317 316 316 316 315 315 316 316 316 316 317 321 323 322 323 326 325 321 323 329 329 325 325 328 329 330 334 334 329 325 323 323 324 324 323 324 324 324 324 324 324 326 329 329 329 328 328 328 328 328 327 326 324 322 321 320 321 324 326 326 326 327 328 329
309 309 309 310 310 311 312 313 313 313 314 315 316 315 315 316 317 317 318 318 317 317 318 318 318 318 318 318 317 317 318 318 318 318 322 324 322 323 326 324 321 324 329 327 324 326 328 328 331 334 332 325 322 323 323 323 323 323 324 324 324 324 324 324 327 329 330 329 329 329 328 328 328 327 326 325 323 320 319 320 322 325 326 325 326 326 327
309 309 309 309 310 311 313 314 314 314 314 316 316 317 316 316 317 318 318 318 317 317 318 319 319 319 320 320 319 319 320 321 320 321 322 322 322 324 326 325 324 326 327 326 326 328 329 331 333 332 327 322 322 323 322 322 322 323 324 324 324 324 324 324 327 328 329 329 329 329 329 328 328 327 327 325 323 320 319 320 322 325 325 325 324 324 325
309 309 309 310 310 312 314 314 314 315 316 316 316 317 318 319 319 319 318 319 319 319 320 319 319 321 322 321 320 320 321 321 321 322 322 322 323 325 327 328 327 324 323 326 329 328 329 331 331 325 321 322 325 325 325 324 323 323 325 325 325 324 324 325 326 328 328 329 330 330 329 329 328 327 327 326 323 320 319 320 323 325 325 324 323 323 323
309 309 309 310 311 312 313 314 315 316 317 317 316 317 318 320 321 320 319 318 319 320 320 320 320 321 322 321 320 321 321 320 321 323 322 322 324 325 325 327 327 324 323 328 329 327 328 330 327 321 322 326 328 329 330 329 326 324 326 326 325 326 326 326 327 328 329 329 330 330 329 329 329 328 327 327 324 320 318 319 322 324 325 324 323 323 322
309 309 309 310 311 311 312 314 316 317 317 316 316 316 316 317 318 317 316 316 318 319 320 320 321 321 321 321 321 321 320 321 323 323 320 320 323 324 322 322 323 324 326 327 327 327 330 331 325 321 324 327 328 329 331 331 329 329 328 327 326 326 326 326 327 328 328 328 329 329 329 329 329 329 328 327 325 321 319 319 321 323 325 324 322 320 319
309 309 309 311 311 311 312 314 315 316 315 314 314 314 315 315 315 315 316 316 318 318 319 320 321 321 322 322 321 321 321 322 324 323 320 320 323 324 322 322 324 327 326 326 327 331 332 327 322 322 325 326 326 327 328 329 330 330 330 328 328 327 327 327 328 328 327 328 329 329 329 329 329 329 329 328 326 322 320 320 321 323 323 323 320 317 316
309 309 310 310 310 311 312 313 313 313 313 313 313 314 315 316 316 317 318 318 318 319 320 321 322 323 323 322 322 323 322 322 323 323 322 321 323 324 325 325 326 326 325 326 331 335 331 323 320 323 325 325 325 326 326 327 328 329 329 330 330 329 329 329 329 329 330 329 329 330 330 330 329 329 329 328 327 323 320 320 322 323 322 319 317 317 318
308 309 310 310 309 310 311 312 312 312 313 313 313 314 315 316 316 318 319 318 318 320 321 321 322 323 323 321 322 323 323 322 321 322 322 322 323 325 325 325 325 326 328 331 333 332 326 321 321 324 324 323 324 324 323 324 326 327 327 329 330 330 332 332 331 331 331 330 330 331 331 330 329 330 329 328 327 324 322 321 321 322 320 317 317 319 320
308 308 309 309 310 311 311 312 313 314 313 312 311 312 313 314 315 318 319 319 319 320 320 320 320 320 319 320 322 324 323 321 321 322 323 325 325 324 323 324 327 331 333 331 328 324 321 321 323 324 323 323 323 322 321 322 324 325 327 328 328 329 331 333 332 331 329 329 330 331 331 330 330 330 329 328 326 324 323 323 323 321 319 317 317 319 321
308 308 308 309 310 311 311 311 313 313 311 310 310 311 311 313 315 317 318 318 319 320 320 320 320 320 321 323 324 322 319 319 321 323 325 326 326 324 325 329 332 331 329 325 322 321 321 322 322 323 323 322 322 322 322 322 322 323 326 327 327 328 329 330 331 330 329 328 328 329 330 330 330 329 328 328 326 324 323 324 324 322 320 318 318 319 320
307 307 308 308 309 309 309 309 310 310 310 310 310 311 311 312 315 316 316 317 319 320 319 318 320 322 323 323 322 320 318 319 322 323 324 326 325 324 326 330 329 325 322 321 321 322 322 322 322 323 323 323 323 324 324 324 324 324 324 324 324 325 326 328 329 329 329 328 328 328 329 330 330 329 328 327 326 325 324 324 323 322 321 318 318 319 319
Wind_Speed
24 24 23 21 21 21 22 24 25 27 26 24 23 21 18 16 7 2 2 4 7 2 2 3 1 2 3 4 5 8 6 4 5 6 3 3 4 3 3 4 4 4 3 2 1 1 1 2 3 1 2 4 3 6 14 13 7 6 3 2 0 2 4 4 2 4 4 6 6 4 3 5 5 2 1 4 2 3 5 4 3 3 2 1 2 1 5
24 23 22 21 20 20 21 22 23 25 25 23 23 20 17 17 9 1 4 3 9 4 1 2 3 4 4 5 6 8 6 5 6 5 2 3 2 1 3 4 4 3 2 2 2 3 2 1 2 2 2 2 2 7 15 12 5 3 4 4 3 2 1 3 3 3 4 4 4 5 4 3 2 1 1 2 3 6 4 1 3 2 3 4 4 2 6
23 22 22 21 20 19 20 20 21 22 21 20 19 18 15 13 7 4 5 1 6 4 2 1 2 3 4 5 6 6 5 6 9 9 6 8 6 3 5 7 5 3 1 1 2 3 3 2 2 2 1 1 1 7 12 8 4 6 9 11 8 4 2 4 5 3 3 3 3 3 2 0 0 2 2 2 4 7 4 2 4 1 3 4 4 4 5
21 21 20 20 20 19 19 19 19 19 19 17 16 14 11 7 3 5 7 4 2 2 4 6 3 1 4 4 4 4 3 6 11 9 7 10 9 6 7 10 7 3 2 2 2 2 3 3 2 3 2 2 1 4 9 8 10 11 13 13 8 4 2 3 6 7 7 6 7 5 3 2 1 2 3 3 3 5 6 5 3 3 3 2 4 5 2
20 20 20 20 20 19 18 18 17 17 16 15 13 11 7 3 2 2 5 6 5 4 6 10 6 3 3 2 3 4 4 6 8 7 5 7 7 5 5 4 3 4 3 2 2 3 1 1 1 3 4 3 1 2 1 5 12 15 12 8 5 5 1 2 6 7 7 6 7 5 3 3 4 4 4 6 5 5 6 5 4 5 6 2 7 5 3
20 20 20 19 19 19 18 17 16 15 14 12 10 8 4 2 1 2 3 2 2 2 7 11 8 6 5 2 2 4 7 6 7 7 8 10 8 4 2 4 5 5 3 2 1 2 3 1 2 2 3 2 3 3 4 2 8 10 6 2 4 6 2 3 5 4 6 5 4 3 3 4 4 5 6 6 7 8 7 6 6 8 7 5 7 7 7
20 20 20 19 18 18 18 16 15 14 12 10 7 3 2 3 2 2 2 2 4 7 11 12 8 5 5 2 2 5 6 7 7 6 5 7 8 4 2 5 7 6 3 4 2 2 2 2 3 1 2 1 3 2 1 1 2 4 3 1 2 4 2 3 4 2 4 5 5 3 4 2 2 4 6 6 10 12 9 5 6 7 5 4 5 8 8
20 20 20 19 18 17 16 16 14 13 11 8 5 2 2 1 1 3 4 4 8 10 11 8 4 4 4 2 2 4 4 7 10 7 3 4 7 5 3 3 3 6 7 7 4 1 3 3 3 2 3 1 2 3 3 3 2 1 2 1 2 2 2 2 4 2 4 4 2 3 4 3 1 5 5 2 9 9 4 2 3 4 2 1 4 5 7
21 21 20 20 18 16 15 14 13 12 10 6 4 4 4 1 3 5 4 3 5 6 7 5 2 3 3 1 3 4 4 7 10 7 3 2 5 6 6 4 0 4 7 7 3 4 3 4 6 5 4 2 5 4 4 7 5 2 2 1 2 3 2 1 5 3 3 4 2 2 3 5 2 5 6 1 6 5 3 2 4 5 3 2 4 2 6
22 21 20 20 18 16 14 13 12 12 10 6 4 5 6 3 5 5 1 1 3 2 4 3 1 2 2 2 4 4 5 10 10 5 4 7 12 11 8 5 2 4 7 5 9 13 10 8 8 4 1 1 4 5 7 10 9 5 4 2 1 4 4 2 4 3 4 5 3 4 5 6 3 5 3 3 5 4 3 2 1 3 5 6 3 4 6
22 22 21 20 19 17 15 13 12 10 9 7 4 4 6 4 5 5 4 1 3 2 2 2 1 1 3 6 7 5 6 11 10 4 3 7 14 15 13 10 5 3 4 9 12 14 13 11 8 5 2 5 3 5 9 9 6 4 5 4 2 4 6 4 3 3 4 5 4 4 3 1 4 6 5 6 6 7 7 3 2 2 1 4 4 4 3
21 21 21 20 19 18 15 13 12 9 8 7 5 5 5 4 4 4 4 2 3 2 2 2 2 2 7 9 7 5 6 10 12 10 7 7 9 13 13 11 5 1 8 12 9 8 7 6 5 6 5 6 5 1 4 7 5 5 4 5 4 6 5 3 2 4 3 2 5 4 3 6 6 5 3 3 7 9 9 3 2 2 2 1 1 2 2
20 20 20 19 19 18 16 13 11 9 7 7 6 6 7 5 4 4 4 3 2 2 1 6 8 8 8 8 6 7 10 13 15 13 9 8 7 10 11 9 5 8 12 10 6 4 2 2 3 3 5 6 6 5 3 1 5 6 6 6 6 7 5 3 2 3 2 1 4 2 6 5 1 5 3 4 6 7 7 3 4 2 1 1 2 3 1
19 19 19 18 18 18 16 13 11 10 8 7 7 7 8 7 6 6 4 2 2 3 2 5 8 6 5 6 6 7 10 13 13 9 6 6 6 8 11 11 11 12 10 5 4 4 3 1 3 3 4 5 4 1 3 4 2 1 3 7 7 7 6 3 2 2 3 3 2 2 3 1 3 2 2 3 2 3 5 2 5 5 2 3 3 2 2
18 18 18 17 17 17 16 13 11 10 8 7 7 8 9 10 9 8 6 4 1 5 6 6 3 4 4 6 6 5 5 7 7 7 7 6 6 8 11 12 13 11 7 5 4 3 2 2 3 2 2 1 1 2 3 3 3 6 3 2 6 6 5 5 4 2 3 4 1 1 1 2 4 5 6 4 5 7 7 5 2 6 5 6 6 4 3
17 17 16 16 16 16 15 13 10 10 9 7 7 8 10 11 11 10 9 6 2 3 5 7 2 6 7 8 6 3 2 3 3 4 6 5 8 12 12 10 10 7 5 6 6 4 3 2 2 1 1 2 3 2 2 1 2 5 6 5 7 6 3 4 5 2 2 5 3 3 3 4 6 7 6 2 6 8 6 5 3 6 7 10 9 6 6
16 16 15 16 16 15 15 12 10 10 10 8 7 8 10 11 12 11 9 7 5 6 8 8 7 9 7 5 5 3 2 4 3 2 2 4 7 13 14 11 10 8 6 5 4 5 3 1 1 1 2 2 2 2 1 0 1 3 4 5 6 6 4 4 5 3 3 4 3 2 3 3 5 7 6 3 6 6 6 3 5 7 11 14 11 8 8
15 15 15 15 15 15 14 12 10 9 9 8 7 8 11 14 14 13 11 8 6 7 10 10 9 7 3 1 4 5 5 6 3 1 3 4 3 11 16 12 7 8 7 6 3 2 1 2 1 2 2 3 1 2 2 0 1 2 2 2 3 4 3 3 4 4 4 4 3 2 3 4 6 5 4 2 4 4 3 3 6 9 15 16 12 9 8
13 13 13 14 16 16 15 11 9 8 8 8 7 7 11 16 16 14 13 11 8 9 11 8 6 8 7 6 9 9 8 7 5 3 3 1 5 15 15 7 4 6 5 5 4 2 1 2 2 2 1 3 1 2 1 1 2 1 1 1 1 1 2 2 3 4 3 3 3 1 3 5 7 5 1 2 4 2 4 5 6 12 16 15 12 11 9
12 13 13 13 16 17 15 12 10 9 8 8 7 7 11 16 17 15 13 11 10 16 21 19 16 18 17 16 16 14 10 9 5 1 1 2 11 17 8 0 5 8 4 4 3 1 1 1 3 1 0 2 2 1 0 2 2 2 1 1 2 3 2 1 2 4 3 2 3 3 2 6 10 8 3 2 3 5 9 10 9 12 13 12 13 12 9
11 13 13 13 14 14 14 12 9 8 8 8 7 7 11 15 16 15 15 13 11 12 15 12 12 14 14 15 16 14 13 13 10 6 8 11 13 10 2 2 7 6 2 2 2 1 0 1 2 2 1 1 2 1 2 1 4 4 2 3 2 2 3 2 3 3 3 2 3 3 4 9 15 11 4 4 6 8 13 14 11 11 12 12 14 12 9
11 12 12 12 13 13 11 9 7 6 7 8 7 6 11 16 16 15 16 16 16 17 16 14 16 19 20 19 17 16 17 18 16 16 18 17 13 8 7 9 9 4 2 3 2 2 1 0 1 1 1 1 1 1 2 2 2 4 2 1 2 3 3 4 3 3 4 4 5 5 2 9 15 11 7 9 11 11 11 10 9 10 10 11 11 10 8
11 11 11 11 11 10 8 6 5 5 7 8 8 7 10 16 17 16 16 16 17 22 24 23 24 23 20 17 16 16 17 16 14 14 16 16 13 11 11 11 9 4 2 4 3 2 1 1 1 0 1 2 0 2 2 1 0 2 2 1 3 4 4 4 2 2 2 1 1 1 4 7 11 11 11 13 15 13 10 9 8 8 8 7 7 6 6
11 10 10 10 9 7 5 5 6 7 8 8 7 7 8 13 17 16 15 13 13 16 17 18 18 14 10 8 10 13 14 13 10 7 7 12 12 9 8 9 6 3 2 5 5 3 1 1 1 1 1 2 1 2 1 0 1 1 1 3 4 3 1 2 3 2 2 1 4 2 3 7 10 13 15 15 14 12 9 7 7 7 6 6 5 5 5
10 9 9 9 7 6 6 6 7 8 9 8 8 8 7 10 15 16 13 10 8 6 6 11 14 11 9 10 10 11 10 10 11 10 8 11 14 11 9 7 6 5 5 2 2 2 1 0 0 1 1 2 1 1 1 1 2 3 1 2 3 3 3 1 2 3 2 3 4 1 6 9 12 15 16 14 13 10 8 6 5 6 6 6 6 5 5
8 8 8 8 7 6 7 8 8 8 8 8 8 8 7 8 12 16 15 11 9 7 5 9 11 7 8 11 10 9 11 12 13 15 14 13 12 12 12 11 10 10 10 6 4 2 1 2 1 1 2 2 1 2 3 2 1 2 2 4 3 2 3 0 3 3 1 1 1 4 7 5 7 13 14 13 11 9 9 7 6 6 6 7 6 5 4
8 8 7 6 6 6 6 7 7 7 8 8 7 7 8 9 11 15 15 11 8 5 3 7 12 13 14 14 10 9 11 12 13 15 15 14 11 11 12 13 13 14 12 8 5 4 3 3 1 2 3 2 2 2 3 3 1 1 2 4 2 0 2 0 4 4 1 3 8 10 6 2 8 13 13 11 9 7 7 7 7 7 7 6 6 6 6
8 8 7 6 6 6 6 6 7 7 8 10 9 8 8 8 11 14 15 14 11 6 5 11 20 23 20 14 7 7 7 9 12 14 15 15 12 10 10 13 16 17 14 9 5 3 3 3 2 3 3 2 2 3 3 1 1 1 4 5 3 2 3 2 5 5 4 8 16 18 9 8 15 16 13 11 10 8 8 8 7 8 8 7 7 7 7
7 8 7 6 6 6 7 7 8 9 10 10 9 8 6 6 12 15 15 14 13 10 10 15 18 16 13 10 7 5 5 6 9 12 15 15 13 9 8 10 14 16 15 10 6 3 3 4 4 4 3 2 2 2 3 1 2 3 6 9 10 10 9 7 5 5 3 9 20 19 8 10 18 18 14 13 12 10 9 8 8 9 9 9 9 8 7
6 8 8 7 7 7 8 8 9 9 10 9 7 4 1 3 8 13 13 13 12 8 7 8 8 11 14 14 10 7 4 5 7 10 13 15 14 10 7 7 11 14 14 11 7 5 4 4 5 6 8 8 4 1 1 2 2 4 6 10 12 13 14 14 12 9 7 12 22 19 11 12 18 17 15 15 13 11 10 9 9 10 10 10 9 8 7
7 7 8 7 7 8 9 10 10 10 10 8 6 3 2 1 4 10 14 13 11 7 6 8 10 14 16 13 10 9 5 3 7 10 13 14 14 13 10 8 9 12 13 11 9 7 5 5 5 5 8 10 7 3 2 3 3 5 6 8 10 12 13 15 16 16 13 16 21 17 13 15 18 17 16 15 14 12 10 9 9 9 9 9 9 8 7
8 8 8 8 8 9 10 10 11 10 9 8 7 6 4 2 4 12 16 14 11 8 7 7 8 7 7 9 11 12 8 3 2 6 11 13 14 14 14 13 12 12 12 11 8 6 6 8 8 7 8 9 5 2 2 4 5 4 4 8 13 15 15 15 14 15 16 19 18 13 12 16 19 17 14 14 14 12 10 9 9 9 9 9 8 6 6
9 9 9 9 10 10 10 11 11 10 9 8 7 7 7 6 8 13 16 14 11 9 7 5 3 2 5 10 11 11 11 8 3 1 5 9 11 11 11 13 15 14 11 9 6 5 6 9 8 7 9 9 5 1 2 6 7 6 6 10 15 15 14 14 13 14 20 22 19 14 12 18 21 17 13 12 12 11 10 8 8 8 8 8 8 7 7
10 10 9 9 9 10 11 12 11 10 10 8 4 4 7 9 11 13 15 14 10 8 6 5 3 2 6 10 7 7 11 10 5 3 2 3 7 7 6 7 9 9 9 8 7 5 4 6 6 4 5 6 5 3 4 6 9 10 12 13 15 15 14 12 12 16 23 25 21 17 16 18 20 18 15 13 13 11 10 8 7 7 7 7 7 7 9
10 10 10 8 8 11 13 14 11 8 6 4 0 5 8 10 11 13 16 14 8 4 4 4 3 2 3 5 3 5 11 11 7 5 3 1 3 3 4 5 4 4 6 7 6 4 3 5 6 4 3 3 4 4 5 4 7 10 12 14 15 14 12 10 12 18 24 25 18 12 12 16 19 19 17 15 13 11 10 8 7 6 7 8 8 9 12
9 9 8 8 9 12 13 10 6 3 1 3 5 7 7 8 8 9 14 15 9 3 3 3 2 2 0 1 4 7 10 11 10 9 5 1 2 2 2 3 2 1 2 3 3 2 4 7 6 3 2 2 4 7 8 8 10 13 15 16 16 15 14 13 13 18 23 23 16 12 13 17 19 19 17 15 13 11 11 10 9 7 8 9 11 12 15
9 8 8 8 10 9 6 2 1 1 4 7 9 10 7 6 7 7 10 12 11 9 7 4 3 4 3 3 5 7 8 8 8 9 7 3 2 4 4 3 1 1 1 1 2 2 6 8 5 2 3 5 9 14 16 16 17 18 18 18 17 17 17 16 16 18 21 17 13 13 16 18 18 18 17 15 14 13 12 11 9 7 8 9 11 13 16
8 7 7 8 8 5 0 3 3 4 7 9 10 9 7 6 6 6 7 8 8 9 8 5 5 8 7 4 5 7 5 5 7 7 5 4 3 3 4 3 1 1 2 2 4 4 4 3 2 2 4 9 15 21 22 21 21 21 20 19 18 16 16 18 19 22 22 17 14 17 19 19 20 20 18 16 15 13 11 10 8 8 7 8 10 13 16
4 5 5 5 5 3 1 3 3 6 7 8 6 5 5 6 4 3 5 6 5 6 7 6 8 10 10 7 8 12 10 4 3 3 2 2 3 2 1 2 2 1 2 2 4 5 3 1 1 2 3 5 12 22 26 25 24 25 24 22 21 19 17 18 21 26 26 23 22 23 22 21 21 22 21 19 16 13 12 11 10 10 9 9 10 13 16
2 2 3 2 2 1 3 2 4 7 6 5 4 3 3 5 5 3 4 4 3 4 6 6 7 10 12 11 8 8 6 5 3 2 2 1 1 1 1 1 1 1 1 2 3 5 3 1 1 2 2 4 10 20 24 22 22 24 24 23 24 23 21 20 21 26 29 28 26 25 24 23 24 23 21 20 18 15 14 13 12 12 11 11 12 14 16
2 0 1 2 2 2 3 1 6 7 5 4 3 2 1 3 4 3 3 2 2 4 7 7 4 5 10 14 12 7 5 7 6 3 2 1 0 2 2 1 1 2 1 4 3 2 2 0 1 2 5 8 13 17 18 17 19 20 19 19 21 22 21 20 20 23 27 27 25 25 24 24 24 24 21 19 18 16 15 14 14 14 13 12 13 15 16
2 1 3 4 4 3 2 3 7 6 2 2 2 1 1 2 2 2 3 3 3 3 5 7 5 3 4 8 11 8 4 4 5 4 2 1 1 1 2 1 1 1 2 3 1 2 2 1 2 3 6 10 12 15 16 17 18 18 16 15 16 18 19 19 19 22 24 24 23 23 23 23 25 24 21 18 16 15 14 14 14 15 14 13 14 15 16
2 2 4 5 4 2 1 3 6 4 1 1 1 1 1 1 1 1 3 4 4 3 3 4 5 3 3 3 5 5 3 2 2 1 1 1 0 1 2 2 1 1 2 1 2 2 1 2 3 6 11 15 17 18 19 20 19 17 16 14 13 16 18 19 21 23 24 22 21 21 21 23 24 24 21 19 17 15 15 14 14 15 16 15 15 15 16
2 2 2 4 3 2 1 2 5 4 2 1 1 1 1 1 2 2 2 2 3 3 3 4 4 3 3 3 3 3 4 3 1 1 1 1 1 1 1 1 2 2 2 1 1 1 2 3 5 8 14 19 21 21 21 20 18 15 14 12 11 14 17 18 21 24 25 23 22 22 22 22 24 24 22 20 18 17 16 15 16 16 16 16 16 16 16
1 2 1 2 2 2 2 1 2 3 2 1 2 3 3 2 2 3 2 3 3 2 3 4 5 5 5 4 3 2 3 3 2 1 1 1 1 0 1 2 1 0 1 1 1 1 2 3 4 8 14 18 19 19 18 16 14 13 13 13 12 14 17 19 21 24 25 24 24 23 23 23 24 24 23 21 20 18 16 16 17 18 18 18 18 17 17
2 3 2 0 1 2 2 1 0 1 2 2 2 3 3 4 5 7 9 10 10 7 5 4 6 6 4 4 3 1 2 3 2 2 2 2 0 2 2 1 1 1 1 1 2 3 3 5 6 9 13 14 14 14 14 14 13 13 13 14 12 12 16 21 23 24 24 24 25 25 24 23 24 25 25 23 22 20 18 17 17 19 20 20 19 18 18
3 3 2 1 1 1 1 2 3 2 2 3 5 7 8 9 11 14 14 13 12 10 8 5 4 4 2 3 2 1 1 2 1 1 2 2 1 1 1 1 1 1 1 2 3 4 4 6 8 11 12 11 12 12 12 12 13 14 14 14 13 13 14 19 24 26 26 26 26 25 24 24 24 26 27 26 24 22 20 19 18 19 20 20 19 19 20
3 3 2 1 1 1 2 2 3 5 6 7 8 8 9 10 11 10 8 9 11 11 9 5 3 1 1 1 1 0 1 1 1 1 2 1 0 1 1 1 1 2 2 3 4 4 5 8 11 12 10 9 11 12 12 11 12 14 15 15 15 15 15 17 22 26 27 27 26 25 24 25 26 28 29 29 27 24 22 20 20 21 21 21 20 21 21
4 3 2 2 2 3 5 6 6 6 6 6 6 8 8 10 11 8 4 5 8 8 6 4 2 0 1 0 1 1 0 1 1 1 0 1 0 1 1 1 2 3 3 3 4 4 6 10 12 11 9 9 10 11 11 11 11 11 12 14 15 15 14 16 19 20 20 21 21 20 21 24 26 29 31 31 29 26 23 22 21 22 23 23 23 23 22
5 4 4 3 2 3 4 4 3 3 4 7 10 11 12 13 12 8 5 4 5 5 3 2 1 1 1 1 2 1 1 2 1 1 1 1 2 2 1 1 3 4 3 3 5 8 10 11 11 10 9 10 11 12 12 12 12 10 9 11 12 12 12 14 16 15 14 16 18 18 20 24 27 30 33 32 29 25 23 23 24 24 24 24 24 24 24
4 4 5 6 7 6 5 4 3 4 6 10 13 15 15 14 12 11 10 9 7 4 1 1 1 2 2 1 1 0 1 0 1 1 1 2 2 2 2 3 4 4 4 6 8 10 11 11 10 9 10 11 13 14 14 13 13 12 12 13 13 11 10 12 14 15 15 17 18 18 21 24 27 30 32 32 28 24 22 22 24 26 27 26 25 25 26
4 4 4 7 11 13 12 10 10 10 12 15 16 17 16 15 14 13 12 10 7 3 2 2 2 2 2 1 1 1 1 0 0 1 2 2 2 2 3 4 4 4 7 10 11 9 9 9 9 10 11 12 14 14 14 14 14 15 15 16 17 15 13 13 14 15 17 19 18 17 19 23 26 28 31 31 30 27 24 22 24 29 30 29 27 26 26
Wind_Direction
335 337 338 339 343 345 347 347 345 346 348 350 356 0 359 354 345 121 72 225 201 162 328 323 8 234 277 298 287 290 284 259 279 295 298 265 243 231 246 249 238 234 222 196 191 167 160 196 189 193 205 196 213 176 155 144 114 96 122 244 211 90 84 78 327 307 313 309 324 14 59 79 84 59 118 136 143 129 143 174 165 133 153 141 86 274 268
333 336 336 337 342 344 345 346 344 347 351 353 358 1 354 346 336 50 60 229 218 221 318 309 307 302 313 325 313 301 280 253 266 268 245 259 248 227 273 252 231 240 204 155 222 205 157 204 196 147 137 191 225 165 151 139 122 147 169 179 159 132 99 92 70 3 355 352 345 342 351 51 98 249 224 158 117 99 107 110 83 100 197 153 123 234 255
331 333 334 334 338 341 342 343 342 347 352 352 356 357 352 350 334 309 2 59 196 190 85 41 289 316 342 330 313 308 291 271 272 262 246 253 246 233 271 264 250 249 190 158 261 202 162 199 203 134 123 269 235 187 182 166 143 171 168 155 144 135 138 118 111 135 171 181 218 257 257 204 216 241 225 196 129 119 134 119 77 75 215 150 147 217 262
328 330 332 332 334 337 338 340 340 344 350 350 354 356 356 9 6 315 336 14 103 120 67 44 20 340 358 336 296 301 308 295 291 281 255 254 250 235 259 270 271 267 188 184 271 244 191 194 174 142 170 251 263 191 198 175 141 145 149 144 128 91 106 127 136 164 180 186 210 219 174 147 246 238 227 216 156 123 116 110 129 189 171 178 216 204 258
326 327 330 331 332 332 333 335 336 339 346 349 350 355 1 32 73 0 341 343 352 12 30 25 13 333 343 315 267 302 318 312 317 316 293 287 286 254 245 276 295 267 229 178 237 279 283 166 175 170 180 214 0 64 160 151 144 143 140 141 114 81 102 167 145 178 201 191 206 209 156 185 209 199 223 221 184 136 125 145 192 162 124 245 250 189 182
324 325 328 331 332 331 329 330 331 335 343 347 349 354 355 350 13 32 13 320 314 352 345 344 339 328 327 284 255 333 331 332 340 328 315 321 326 309 296 2 345 292 256 157 198 323 357 319 255 202 174 141 70 46 1 40 141 139 127 147 119 99 144 195 151 198 233 219 232 221 171 212 215 197 224 213 178 174 180 187 186 152 147 230 233 172 186
321 324 326 328 331 330 327 327 326 330 338 343 351 353 320 321 307 318 350 297 270 285 302 313 322 327 324 323 3 352 338 337 333 317 314 327 335 358 21 343 346 358 49 98 111 358 356 296 289 257 168 120 100 115 350 8 133 128 104 104 104 101 159 190 141 180 258 254 258 230 180 215 256 244 246 205 182 194 199 185 174 167 182 224 190 179 211
319 323 324 326 329 328 326 325 323 326 332 338 346 323 302 343 311 313 340 316 289 288 295 309 333 337 328 332 335 329 335 341 328 312 307 324 328 351 0 321 12 39 50 78 91 264 218 216 253 195 129 91 145 158 185 185 150 105 138 126 32 84 178 176 106 82 298 285 254 190 154 138 231 290 300 198 183 199 201 148 158 170 235 269 136 176 243
317 321 323 323 326 325 323 322 321 322 327 333 328 287 276 260 270 299 338 325 290 290 300 313 352 342 335 347 333 333 332 332 325 303 270 331 336 332 325 309 29 44 34 54 37 313 249 221 248 220 162 195 211 201 198 177 158 138 169 161 56 101 140 30 80 94 273 292 343 356 58 78 44 325 334 85 162 185 198 190 182 174 166 113 95 165 252
316 319 320 321 323 321 318 318 318 319 321 324 312 275 273 269 249 242 217 285 285 305 321 321 312 276 292 339 344 334 313 321 328 315 303 351 4 4 357 347 25 62 37 8 325 318 305 284 284 268 201 275 240 227 210 180 163 159 153 134 100 122 134 147 105 116 251 281 340 355 24 41 3 307 286 166 152 148 134 114 165 169 149 141 156 224 236
316 317 318 318 319 317 316 313 311 313 313 311 300 267 271 271 236 205 161 213 277 331 350 291 236 257 329 342 341 326 316 324 334 338 299 334 359 12 21 25 47 89 354 327 318 316 304 291 284 267 316 29 30 225 206 179 164 165 148 136 148 128 131 162 141 130 231 273 344 25 35 7 254 248 224 185 163 140 129 129 268 273 195 170 186 219 221
314 315 315 315 315 314 314 311 305 305 302 296 288 266 264 266 243 207 148 157 280 341 9 256 245 316 315 317 323 320 317 314 312 308 285 283 335 3 18 30 47 332 327 333 326 313 304 300 287 269 298 16 40 87 165 165 193 216 176 147 149 139 134 153 124 122 193 299 32 53 250 243 247 279 286 158 145 132 120 113 280 298 323 286 172 212 214
311 312 311 312 311 310 311 309 300 294 289 282 276 263 256 256 243 214 155 138 261 271 290 285 287 293 298 304 313 314 317 320 317 310 288 271 314 1 14 14 349 328 339 341 333 334 329 332 345 311 312 353 25 38 41 209 219 210 188 166 151 146 146 142 117 127 154 86 84 141 245 252 353 1 4 97 107 108 99 51 310 279 213 201 223 266 279
308 309 309 309 308 307 308 307 294 284 279 269 264 257 251 242 223 208 184 158 243 261 279 300 300 298 300 314 323 319 325 336 338 329 303 288 316 350 355 355 354 354 2 1 347 17 55 39 9 358 335 357 20 18 326 316 325 102 194 191 160 145 148 139 135 158 137 130 164 239 284 325 64 2 258 169 144 151 133 126 279 273 244 188 203 254 265
306 308 308 309 308 306 307 304 290 279 273 261 253 245 241 236 222 216 217 195 234 287 256 236 276 346 332 319 328 334 333 340 342 330 315 317 343 341 337 354 9 11 25 48 39 35 64 67 42 19 348 15 192 241 309 321 0 26 22 159 137 132 157 156 159 180 110 102 113 339 335 230 228 247 254 245 217 194 149 115 288 280 259 210 190 189 206
307 307 308 311 311 309 309 303 287 274 266 257 247 234 232 233 224 222 223 201 161 306 235 201 233 340 320 306 313 319 311 321 330 326 321 333 349 341 338 4 21 7 9 37 48 55 57 73 108 152 226 197 187 236 326 321 322 4 19 59 88 85 86 111 119 131 112 111 128 168 189 231 239 239 258 253 176 168 121 66 314 263 223 202 193 189 203
311 311 311 314 312 311 313 306 283 270 265 256 240 225 222 222 220 222 222 206 208 254 247 234 270 305 305 302 314 320 321 318 316 331 320 307 328 337 340 357 24 37 55 66 51 34 24 17 101 111 239 230 161 182 237 58 12 330 346 25 66 73 55 72 106 140 156 133 134 197 210 237 235 233 251 222 161 139 89 39 280 234 199 196 197 199 210
314 315 317 320 315 313 315 307 283 273 274 260 237 219 214 215 217 220 222 214 222 260 262 252 263 274 243 241 310 310 326 330 329 336 304 277 307 337 330 327 354 30 53 79 84 52 357 252 189 139 233 260 195 168 215 130 101 274 304 20 62 61 47 85 125 144 153 138 136 230 251 244 224 233 266 203 140 107 109 214 232 198 186 193 199 203 213
310 316 326 329 320 314 313 305 282 273 278 268 246 223 213 216 220 222 227 227 226 244 247 234 246 263 254 269 287 285 291 297 285 299 319 302 346 337 325 309 343 6 30 68 82 108 174 275 258 153 190 284 269 152 183 191 182 235 325 77 121 79 54 88 128 141 150 136 125 175 275 244 203 198 224 137 134 163 206 198 181 174 180 192 202 208 214
310 323 333 328 316 310 310 302 279 266 275 275 256 226 212 217 221 223 229 233 240 258 262 258 261 266 265 268 274 277 284 283 272 289 148 264 327 338 344 69 351 354 26 69 61 72 117 296 295 303 217 266 281 115 111 302 282 234 170 167 201 175 144 164 184 157 133 65 86 117 257 228 187 166 146 151 171 191 172 150 147 172 187 197 205 212 217
318 323 326 320 310 307 308 300 278 264 275 278 264 231 208 210 216 221 228 232 240 263 271 266 265 268 266 265 264 262 265 267 266 279 284 286 309 335 20 254 305 326 30 74 100 122 113 207 252 312 298 269 318 86 135 0 318 280 201 168 207 196 152 189 230 184 128 117 175 200 228 196 176 167 175 191 179 165 154 147 154 180 194 205 212 218 223
319 318 320 319 312 307 303 292 270 262 273 275 271 244 209 206 212 221 229 235 241 251 260 269 278 279 274 268 263 256 256 261 265 269 272 277 286 286 267 280 294 300 344 22 103 134 30 158 188 306 311 285 329 18 117 98 329 301 307 137 201 222 189 177 198 194 161 170 214 233 190 165 174 183 191 176 165 157 156 162 174 186 199 212 215 220 227
313 315 318 318 315 310 300 285 269 268 277 276 272 257 221 208 210 221 234 242 254 264 271 278 282 282 278 268 256 250 251 255 261 265 260 257 264 273 268 272 283 297 7 57 78 122 143 163 186 144 292 261 211 53 33 46 237 293 315 290 250 238 201 164 148 201 190 157 281 229 138 156 180 188 178 167 164 164 168 181 199 205 210 212 209 219 236
302 308 312 314 317 316 301 289 281 278 283 280 269 260 235 214 212 225 238 246 263 280 286 282 275 276 288 273 230 223 232 236 241 254 244 229 233 250 261 256 258 272 81 77 58 54 106 221 254 133 191 261 223 100 64 8 189 192 279 303 294 291 255 121 89 89 137 191 311 310 148 165 175 173 170 169 171 175 176 184 206 211 206 208 215 225 237
294 303 306 304 307 305 292 284 280 279 284 281 264 255 245 222 220 228 233 238 257 284 303 293 280 272 276 269 235 211 221 233 235 243 248 238 234 242 261 259 244 258 282 305 356 20 68 136 268 119 183 247 239 183 196 197 195 194 196 263 276 313 351 72 96 80 126 228 285 353 125 150 163 167 173 176 173 172 169 171 194 203 199 207 217 219 230
300 304 300 295 294 295 287 280 275 274 279 284 273 258 247 227 224 231 231 233 252 261 265 283 284 273 271 273 256 233 237 240 238 242 247 250 249 256 269 270 258 263 272 265 254 262 183 159 165 137 177 237 239 196 216 233 213 190 218 230 233 310 327 267 117 89 79 259 246 110 101 112 160 169 176 182 175 165 162 171 197 212 206 209 214 216 227
315 307 294 289 292 292 286 280 277 270 271 284 289 277 257 231 225 234 232 223 238 261 252 267 280 293 303 293 262 231 233 233 230 234 234 235 244 256 262 259 252 253 255 246 239 233 177 152 191 198 208 271 301 244 235 246 232 201 247 246 238 321 284 149 101 110 190 219 186 166 141 153 190 182 179 181 178 176 183 195 215 226 225 229 231 228 227
321 305 286 283 290 287 282 282 280 276 280 285 288 290 278 241 223 231 230 219 224 243 269 285 290 298 306 302 258 216 229 235 231 230 228 228 235 250 255 245 238 240 242 236 229 205 164 153 197 208 222 276 281 267 278 278 232 255 247 239 234 216 213 180 144 167 231 221 190 178 164 172 183 183 183 186 191 201 208 211 222 229 232 237 237 233 234
305 297 281 273 279 281 280 279 276 279 290 293 288 292 292 245 220 221 221 216 221 244 281 296 294 293 298 302 290 268 258 241 231 230 229 227 228 237 246 234 225 227 232 229 218 199 189 195 200 208 233 234 200 263 296 251 203 242 244 247 257 259 258 252 214 194 233 204 188 184 183 186 185 186 189 194 201 211 213 216 224 228 231 235 238 239 243
290 292 280 267 266 272 276 279 283 291 298 298 291 285 284 228 218 214 209 205 211 236 283 298 290 292 300 306 314 317 290 223 215 224 230 231 229 228 233 228 219 221 225 223 216 209 210 208 202 218 237 235 216 215 259 201 217 260 258 260 269 272 271 267 255 251 249 202 190 194 207 198 187 186 189 194 202 211 218 226 228 227 234 242 246 249 245
280 285 283 273 267 271 274 278 288 297 297 294 282 244 182 158 203 193 189 192 203 229 266 274 278 291 301 312 333 346 340 222 206 215 225 231 232 230 230 229 220 216 217 216 212 207 204 196 188 207 228 229 222 203 170 190 250 269 257 265 285 298 298 285 267 256 242 208 193 195 201 192 184 184 190 197 204 212 221 228 229 232 242 249 253 257 244
273 274 279 276 270 274 283 289 293 293 289 283 265 228 192 158 184 185 185 192 206 223 245 269 286 292 297 318 341 357 11 35 172 212 224 230 234 236 237 236 232 231 231 226 211 202 208 206 198 206 218 216 210 184 166 207 235 239 241 271 289 300 303 294 270 241 217 199 187 174 170 182 190 195 202 207 211 217 223 226 230 238 243 243 245 246 225
271 270 274 274 274 282 295 302 298 288 283 284 266 226 195 181 183 185 188 196 208 218 232 266 290 260 286 314 338 8 21 22 34 214 232 225 224 233 237 235 233 234 233 223 203 197 214 208 196 208 225 218 202 171 219 230 235 235 250 273 285 291 294 287 262 220 197 192 192 190 194 199 199 202 212 217 214 216 219 221 231 238 235 234 237 227 203
268 266 269 272 279 291 302 307 301 285 280 288 276 199 184 186 189 189 191 197 207 220 239 275 292 261 297 314 331 8 8 4 15 18 339 228 216 223 219 214 219 219 217 216 209 202 213 205 186 193 219 207 189 208 242 241 238 240 248 259 270 280 287 281 253 218 196 189 195 208 217 209 199 198 209 214 207 204 207 210 221 229 223 220 220 209 195
268 265 267 267 279 296 302 303 298 285 285 304 216 165 182 192 195 195 197 198 201 215 235 250 255 260 313 320 315 352 2 6 10 356 341 184 179 198 185 168 173 191 200 206 203 194 194 190 181 188 202 180 184 221 241 235 228 234 240 244 251 262 268 261 244 222 200 191 196 212 212 203 201 204 208 207 200 197 199 199 204 215 216 210 204 196 192
271 268 266 266 282 297 301 298 289 284 21 78 118 145 174 195 198 202 208 209 210 232 268 271 254 226 237 295 286 322 349 2 7 3 0 87 98 73 128 139 139 177 191 192 201 211 190 177 175 197 212 180 204 229 231 229 231 236 241 244 249 255 257 255 243 218 200 197 207 215 203 201 205 207 204 199 195 193 195 194 193 199 206 203 197 193 190
276 268 262 267 282 291 301 335 73 127 116 120 126 125 135 167 178 187 210 220 227 242 263 286 279 247 243 270 293 317 342 354 359 6 14 26 25 27 47 73 86 326 350 301 250 223 188 181 186 220 222 218 235 240 239 241 246 248 251 256 259 259 257 254 240 213 199 199 207 202 194 195 201 202 199 196 194 193 197 199 198 202 209 205 198 193 191
275 259 254 266 274 271 333 74 108 150 138 130 130 127 133 160 177 187 205 220 234 244 245 251 252 244 237 242 266 278 304 350 359 360 9 17 8 11 38 54 49 3 355 296 248 218 189 180 188 233 238 242 246 247 247 249 252 255 258 261 264 264 261 255 238 213 197 188 187 188 188 189 194 198 200 201 201 200 198 196 194 195 202 203 196 191 189
277 253 252 261 253 243 11 47 158 172 155 147 159 171 172 176 182 184 190 204 231 237 225 231 244 233 212 212 258 270 269 292 355 345 328 5 8 2 31 33 29 36 9 302 230 198 195 304 300 251 262 260 250 252 254 253 253 256 258 258 260 263 264 260 246 228 217 215 217 217 215 213 210 207 204 203 203 199 191 189 191 191 193 197 193 189 188
293 246 247 259 236 260 0 13 181 180 166 164 192 236 214 191 191 180 170 187 227 224 212 226 250 241 223 223 252 276 253 219 216 257 263 298 14 64 104 49 35 69 355 281 221 179 172 312 295 247 254 248 250 260 265 263 261 263 261 258 257 258 258 261 254 239 232 234 235 234 234 233 229 221 212 207 206 202 194 191 191 192 194 194 190 188 190
7 320 244 278 278 315 359 55 169 172 167 175 208 262 236 193 203 202 180 183 245 237 220 218 231 242 231 225 226 236 233 221 226 247 262 255 326 83 111 138 87 79 250 255 233 150 123 154 269 248 249 255 266 277 282 280 277 275 270 262 256 252 254 260 254 236 228 231 234 232 231 231 228 224 219 215 213 210 200 192 189 191 194 193 188 188 191
329 284 253 281 295 311 346 146 161 165 170 184 207 260 238 205 219 220 207 217 243 237 219 214 221 255 251 223 217 221 224 219 230 243 239 214 187 133 115 84 61 78 239 249 247 77 74 269 265 257 260 272 286 294 295 293 292 292 287 274 256 243 244 249 243 228 224 228 232 232 231 229 227 224 220 215 213 208 201 195 190 189 190 191 188 187 189
294 249 261 289 294 291 259 174 177 184 186 130 135 339 319 255 236 234 228 235 241 233 216 214 225 258 279 229 209 205 195 200 244 260 150 113 118 112 86 68 98 217 247 283 64 80 179 226 230 255 274 288 298 303 304 304 303 301 295 281 255 237 236 238 235 229 228 228 229 232 233 232 229 224 218 215 212 204 197 195 192 187 187 189 188 187 188
281 229 264 302 284 226 176 174 183 185 165 123 150 176 240 262 256 242 225 222 222 220 223 221 217 227 238 222 196 180 182 190 186 64 72 30 21 82 102 224 238 247 303 358 75 172 241 231 236 272 295 307 316 319 317 311 304 298 297 288 259 237 233 235 234 231 227 224 225 229 232 231 227 219 213 212 211 203 196 193 190 187 187 188 187 186 188
260 198 203 323 276 217 189 180 192 195 200 210 194 186 189 206 205 202 233 300 305 278 251 245 238 232 220 203 186 165 156 153 142 129 105 29 35 128 224 240 236 306 0 318 252 280 283 257 271 309 324 330 334 338 337 328 311 294 289 286 270 245 234 232 232 228 223 221 223 225 226 227 223 217 212 211 208 205 202 198 190 185 185 188 190 188 187
199 183 160 138 264 226 182 163 217 195 182 189 206 217 229 246 255 266 287 302 304 299 295 278 254 237 205 169 166 177 145 136 138 142 122 110 157 256 270 306 1 14 4 290 266 268 249 246 278 315 331 335 338 341 343 342 333 312 290 283 279 261 240 231 227 225 223 223 222 222 222 223 221 218 214 209 204 202 204 203 194 185 183 187 191 187 182
200 194 175 194 264 261 202 213 239 258 280 303 305 298 292 291 292 289 286 281 277 282 291 285 254 231 189 160 178 212 166 129 131 140 134 137 209 272 330 0 280 213 182 219 249 248 237 256 290 313 327 335 337 336 332 333 337 332 316 298 288 276 256 238 230 227 227 225 222 220 219 218 218 217 214 209 203 201 202 201 195 187 184 186 187 183 180
198 193 186 200 218 207 209 247 289 304 305 310 317 319 314 312 314 309 287 265 265 275 279 262 225 197 153 177 197 209 95 100 136 213 184 148 84 14 12 333 264 232 205 209 217 224 246 278 299 313 322 324 323 325 326 322 323 332 334 321 302 288 273 251 235 228 225 222 220 219 218 216 215 214 213 209 202 198 199 199 194 187 184 184 183 182 182
217 213 214 234 251 252 265 289 309 309 301 313 346 7 358 338 334 339 326 274 270 275 268 240 202 142 340 326 40 46 84 168 203 233 120 86 125 196 180 190 233 254 254 221 211 236 275 294 304 312 315 312 309 314 320 317 314 325 339 333 316 301 282 255 236 225 220 218 219 221 221 218 215 214 212 209 202 196 195 197 194 188 185 184 183 182 182
229 236 234 234 251 279 293 308 319 318 318 329 343 353 349 336 333 345 354 312 282 275 263 228 158 119 127 81 48 16 277 237 172 120 124 194 202 192 183 210 227 232 234 232 248 272 289 299 303 302 303 307 307 308 310 310 307 311 325 327 320 311 288 257 241 232 225 223 226 230 227 220 215 212 210 206 200 195 195 197 195 189 186 186 186 183 180
229 243 242 233 237 256 280 297 287 280 293 304 312 321 326 323 322 335 344 334 318 309 290 227 115 67 60 70 97 128 248 258 106 131 197 221 192 159 177 220 226 226 252 282 294 296 295 292 289 290 295 301 305 308 310 307 300 298 301 303 303 301 286 262 249 241 231 225 226 229 225 218 213 213 211 206 199 194 195 200 201 197 192 189 189 186 183
220 232 246 245 244 252 264 274 273 271 276 285 294 305 312 310 309 318 329 330 319 296 247 195 128 89 83 194 196 145 114 113 223 199 219 244 228 175 190 232 262 284 298 307 313 313 301 289 285 288 295 303 308 311 310 303 295 291 293 292 289 285 276 265 258 250 238 228 223 221 219 216 214 214 212 206 198 192 193 200 206 204 199 194 192 191 189